Content
SEND FEEDBACK

Daily
Averages
Monthly
Summary
United States of America

CRESCENT, OKLAHOMA


Home > North America > United States > Oklahoma
Elevation: 1140 feet     Latitude: 35 57N     Longitude: 097 36W

WEATHER
 
SELECT A DAY
Number of Records: 65,751;   Date Range: 4/9/98 - 8/27/14
 
SHARE

PRINT THIS DATA

[ ← Previous Day ]
WEATHER ALMANAC - JANUARY 23, 2013
[ Next Day → ]
[ °C ]   °F
Weather ElementAverageHighLow
Temperature46.5 °F66.9 °F (3:53 pm)27 °F (6:53 am)
Dewpoint35.6 °F44.1 °F (3:53 pm)24.1 °F (6:53 am)
Humidity67.7 %89 % (6:53 am)44 % (3:53 pm)
Barometer30.19 in30.25 in (9:53 am)30.11 in (4:53 pm)
Wind Speed3.6 mph10.4 mph (9:53 pm)
Weather ElementAverage
Visibility6.8 mi
Wind DirectionENE (63.6 °)

Weather ElementTotal
Precipitation---
Heating Degree Days18.1 (Base 65)
Averaged from 22 records on January 23, 2013
WEATHER CONDITIONS BREAKOUT
WIND DIRECTION BREAKOUT
WEATHER BY HOUR - JANUARY 23, 2013
[ °C ]   °F
Local TimeTemperatureDewpointHumidityBarometerVisibilityWind DirectionWind SpeedGust SpeedPrecipitationEventsConditions
2:53 AM35.1 °F30.0 °F82 %30.21 in9.0 miCalmClear
3:53 AM32.0 °F28.0 °F85 %30.21 in8.0 miCalmClear
4:53 AM32.0 °F27.0 °F82 %30.22 in7.0 miCalmClear
5:53 AM28.0 °F25.0 °F88 %30.22 in6.0 miSouth (180°)4.6 mphClear
6:53 AM27.0 °F24.1 °F89 %30.22 in5.0 miNorthClear
7:53 AM28.9 °F26.1 °F89 %30.24 in4.0 miCalmClear
8:53 AM30.9 °F26.1 °F82 %30.24 in6.0 miCalmHaze
9:53 AM37.9 °F28.0 °F68 %30.25 in6.0 miCalmHaze
10:53 AM44.1 °F34.0 °F68 %30.25 in5.0 miWest (260°)4.6 mphHaze
11:53 AM51.1 °F36.0 °F56 %30.22 in6.0 miSW (220°)4.6 mphHaze
12:53 PM55.0 °F37.0 °F51 %30.18 in6.0 miVariable3.5 mphHaze
1:53 PM60.1 °F39.9 °F47 %30.14 in6.0 miWSW (250°)5.8 mphHaze
2:53 PM64.9 °F43.0 °F45 %30.12 in5.0 miVariable4.6 mphHaze
3:53 PM66.9 °F44.1 °F44 %30.12 in7.0 miSSW (210°)3.5 mphClear
4:53 PM64.0 °F44.1 °F48 %30.11 in8.0 miCalmClear
5:53 PM55.9 °F43.0 °F62 %30.12 in8.0 miCalmClear
6:53 PM54.0 °F42.1 °F64 %30.14 in7.0 miENE (60°)4.6 mphClear
7:53 PM52.0 °F42.1 °F69 %30.16 in8.0 miNorth (10°)3.5 mphClear
8:53 PM51.1 °F41.0 °F68 %30.18 in8.0 miNNE (30°)5.8 mphClear
9:53 PM52.0 °F41.0 °F66 %30.17 in9.0 miENE (60°)10.4 mphClear
10:53 PM51.1 °F41.0 °F68 %30.18 in8.0 miENE (60°)10.4 mphClear
11:53 PM50.0 °F39.9 °F68 %30.19 in8.0 miENE (60°)10.4 mphClear
Hourly data recorded from KGOK, located miles away from Crescent, Oklahoma







STORIES FROM OUR PARTNERS